VY22SS LEBL-LEZL

Flight info

Callsign VY22SS
Flight time 1h 8m
Altitude 31000
Route LOTOS DCT TORDU DCT DIKUT DCT SOPET DCT VLC DCT SERRA DCT ASTRO DCT POBOS DCT XEBAR DCT YES DCT BLN
Aircraft A320/M-SDE3FGHIRWY/LB1

Departure

Time 2026-03-26 11:30
Airport Josep Tarradellas Barcelona-El Prat Airport (LEBL)

Arrival

Time 2026-03-26 12:38
Airport Seville Airport (LEZL)
Time Latitude Longitude Altitude Speed Heading
2026-03-26 10:54 41.29133 2.07895 19 ft 0 kts 155°
2026-03-26 11:17 41.29135 2.07894 19 ft 2 kts 155°
2026-03-26 11:17 41.29150 2.07884 21 ft 3 kts 155°
2026-03-26 11:17 41.29166 2.07875 21 ft 2 kts 144°
2026-03-26 11:17 41.29180 2.07860 21 ft 3 kts 120°
2026-03-26 11:18 41.29189 2.07840 22 ft 3 kts 105°
2026-03-26 11:18 41.29192 2.07818 20 ft 3 kts 88°
2026-03-26 11:18 41.29189 2.07799 22 ft 0 kts 66°
2026-03-26 11:21 41.29192 2.07807 19 ft 3 kts 66°
2026-03-26 11:22 41.29205 2.07845 23 ft 6 kts 65°
2026-03-26 11:22 41.29225 2.07901 20 ft 8 kts 64°
2026-03-26 11:22 41.29250 2.07977 20 ft 10 kts 66°
2026-03-26 11:22 41.29283 2.08073 20 ft 12 kts 65°
2026-03-26 11:23 41.29322 2.08188 21 ft 15 kts 65°
2026-03-26 11:23 41.29362 2.08304 19 ft 13 kts 65°
2026-03-26 11:23 41.29326 2.08402 20 ft 14 kts 154°
2026-03-26 11:23 41.29236 2.08456 21 ft 15 kts 155°
2026-03-26 11:24 41.29166 2.08499 19 ft 10 kts 154°
2026-03-26 11:24 41.29083 2.08549 17 ft 15 kts 156°
2026-03-26 11:24 41.28985 2.08608 18 ft 16 kts 156°
2026-03-26 11:24 41.28893 2.08663 16 ft 12 kts 155°
2026-03-26 11:25 41.28874 2.08763 19 ft 13 kts 73°
2026-03-26 11:25 41.28916 2.08884 16 ft 16 kts 66°
2026-03-26 11:25 41.28963 2.09027 16 ft 18 kts 65°
2026-03-26 11:25 41.29019 2.09189 19 ft 20 kts 65°
2026-03-26 11:26 41.29081 2.09371 18 ft 23 kts 65°
2026-03-26 11:26 41.29150 2.09570 17 ft 25 kts 65°
2026-03-26 11:26 41.29196 2.09706 17 ft 20 kts 66°
2026-03-26 11:26 41.29244 2.09847 17 ft 18 kts 66°
2026-03-26 11:27 41.29308 2.09996 17 ft 20 kts 66°
2026-03-26 11:27 41.29360 2.10153 16 ft 10 kts 71°
2026-03-26 11:27 41.29360 2.10257 14 ft 13 kts 109°
2026-03-26 11:27 41.29296 2.10291 13 ft 11 kts 154°
2026-03-26 11:28 41.29234 2.10320 15 ft 7 kts 185°
2026-03-26 11:28 41.29205 2.10280 15 ft 0 kts 244°
2026-03-26 11:29 41.29205 2.10279 15 ft 0 kts 244°
2026-03-26 11:29 41.29190 2.10237 16 ft 24 kts 245°
2026-03-26 11:29 41.29016 2.09731 21 ft 93 kts 245°
2026-03-26 11:30 41.28660 2.08735 22 ft 142 kts 241°
2026-03-26 11:30 41.28202 2.07433 277 ft 160 kts 225°
2026-03-26 11:30 41.27226 2.06852 724 ft 165 kts 180°
2026-03-26 11:30 41.26076 2.06825 1383 ft 164 kts 186°
2026-03-26 11:31 41.24931 2.06648 1951 ft 172 kts 189°
2026-03-26 11:31 41.23661 2.06437 2258 ft 196 kts 189°
2026-03-26 11:31 41.22241 2.06156 2680 ft 217 kts 200°
2026-03-26 11:31 41.20940 2.05016 3075 ft 238 kts 230°
2026-03-26 11:32 41.19871 2.03259 3797 ft 249 kts 232°
2026-03-26 11:32 41.18771 2.01462 4689 ft 253 kts 232°
2026-03-26 11:32 41.17641 1.99635 5555 ft 259 kts 232°
2026-03-26 11:32 41.16481 1.97769 6385 ft 265 kts 233°
2026-03-26 11:33 41.15277 1.95836 7151 ft 272 kts 233°
2026-03-26 11:33 41.14056 1.93879 7911 ft 278 kts 233°
2026-03-26 11:33 41.12812 1.91878 8672 ft 284 kts 234°
2026-03-26 11:33 41.11538 1.89830 9437 ft 291 kts 234°
2026-03-26 11:34 41.10234 1.87738 10161 ft 297 kts 234°
2026-03-26 11:34 41.08879 1.85557 10506 ft 318 kts 234°
2026-03-26 11:34 41.07423 1.83208 10688 ft 341 kts 234°
2026-03-26 11:34 41.05868 1.80698 10819 ft 364 kts 234°
2026-03-26 11:35 41.04212 1.78032 10963 ft 384 kts 234°
2026-03-26 11:35 41.02481 1.75268 11403 ft 394 kts 234°
2026-03-26 11:35 41.00714 1.72459 11970 ft 399 kts 234°
2026-03-26 11:35 40.98930 1.69621 12559 ft 403 kts 234°
2026-03-26 11:36 40.97125 1.66750 13151 ft 408 kts 235°
2026-03-26 11:36 40.95300 1.63844 13732 ft 413 kts 235°
2026-03-26 11:36 40.93454 1.60906 14243 ft 417 kts 235°
2026-03-26 11:36 40.91596 1.57954 14796 ft 419 kts 235°
2026-03-26 11:37 40.89724 1.54984 15360 ft 421 kts 235°
2026-03-26 11:37 40.87843 1.52005 15943 ft 423 kts 235°
2026-03-26 11:37 40.85952 1.49013 16502 ft 425 kts 234°
2026-03-26 11:37 40.84053 1.46009 17060 ft 427 kts 234°
2026-03-26 11:38 40.82143 1.42986 17617 ft 429 kts 234°
2026-03-26 11:38 40.80224 1.39951 18178 ft 432 kts 234°
2026-03-26 11:38 40.78296 1.36903 18686 ft 434 kts 234°
2026-03-26 11:38 40.76358 1.33844 19092 ft 434 kts 234°
2026-03-26 11:39 40.74416 1.30785 19513 ft 437 kts 234°
2026-03-26 11:39 40.72460 1.27707 19952 ft 439 kts 234°
2026-03-26 11:39 40.70491 1.24609 20384 ft 442 kts 234°
2026-03-26 11:39 40.68508 1.21491 20826 ft 445 kts 234°
2026-03-26 11:40 40.66515 1.18363 21279 ft 447 kts 234°
2026-03-26 11:40 40.64485 1.15182 21747 ft 448 kts 234°
2026-03-26 11:40 40.62477 1.12040 22217 ft 449 kts 234°
2026-03-26 11:40 40.60463 1.08887 22691 ft 450 kts 234°
2026-03-26 11:41 40.58449 1.05739 23168 ft 450 kts 234°
2026-03-26 11:41 40.56427 1.02585 23662 ft 451 kts 234°
2026-03-26 11:41 40.54402 0.99439 24068 ft 451 kts 233°
2026-03-26 11:41 40.52325 0.96333 24488 ft 452 kts 232°
2026-03-26 11:42 40.50201 0.93281 24913 ft 453 kts 231°
2026-03-26 11:42 40.48046 0.90255 25349 ft 454 kts 231°
2026-03-26 11:42 40.45883 0.87241 25777 ft 454 kts 231°
2026-03-26 11:42 40.43722 0.84223 26225 ft 454 kts 231°
2026-03-26 11:43 40.41568 0.81194 26671 ft 454 kts 232°
2026-03-26 11:43 40.39425 0.78162 27129 ft 453 kts 232°
2026-03-26 11:43 40.37284 0.75120 27591 ft 453 kts 232°
2026-03-26 11:43 40.35148 0.72082 28058 ft 453 kts 232°
2026-03-26 11:44 40.33015 0.69047 28538 ft 452 kts 232°
2026-03-26 11:44 40.30883 0.66021 29033 ft 452 kts 232°
2026-03-26 11:44 40.28750 0.63004 29535 ft 451 kts 232°
2026-03-26 11:44 40.26616 0.59993 30038 ft 450 kts 232°
2026-03-26 11:45 40.24491 0.56996 30476 ft 449 kts 232°
2026-03-26 11:45 40.22365 0.54000 30909 ft 449 kts 232°
2026-03-26 11:45 40.20227 0.50983 31052 ft 456 kts 232°
2026-03-26 11:45 40.18054 0.47917 31084 ft 464 kts 232°
2026-03-26 11:46 40.13585 0.41617 31094 ft 478 kts 232°
2026-03-26 11:46 40.09029 0.35243 31085 ft 481 kts 231°
2026-03-26 11:47 40.04450 0.28867 31085 ft 482 kts 231°
2026-03-26 11:47 39.99839 0.22441 31089 ft 482 kts 231°
2026-03-26 11:48 39.95271 0.16052 31086 ft 482 kts 231°
2026-03-26 11:48 39.90691 0.09672 31083 ft 482 kts 231°
2026-03-26 11:49 39.86097 0.03309 31091 ft 482 kts 231°
2026-03-26 11:49 39.81501 -0.03052 31089 ft 482 kts 231°
2026-03-26 11:50 39.76918 -0.09402 31097 ft 482 kts 231°
2026-03-26 11:50 39.72327 -0.15747 31094 ft 481 kts 230°
2026-03-26 11:51 39.67728 -0.22066 31091 ft 481 kts 230°
2026-03-26 11:51 39.63132 -0.28371 31083 ft 481 kts 230°
2026-03-26 11:52 39.58536 -0.34659 31087 ft 480 kts 230°
2026-03-26 11:52 39.53948 -0.40949 31080 ft 480 kts 230°
2026-03-26 11:53 39.49356 -0.47224 31081 ft 479 kts 231°
2026-03-26 11:53 39.45244 -0.53949 31076 ft 476 kts 236°
2026-03-26 11:54 39.41256 -0.60782 31077 ft 476 kts 236°
2026-03-26 11:54 39.37238 -0.67648 31073 ft 476 kts 236°
2026-03-26 11:55 39.33230 -0.74462 31072 ft 476 kts 236°
2026-03-26 11:55 39.29210 -0.81261 31069 ft 477 kts 236°
2026-03-26 11:56 39.25188 -0.88067 31071 ft 477 kts 236°
2026-03-26 11:56 39.21161 -0.94871 31069 ft 477 kts 236°
2026-03-26 11:57 39.17123 -1.01669 31070 ft 478 kts 236°
2026-03-26 11:57 39.13083 -1.08470 31066 ft 478 kts 236°
2026-03-26 11:58 39.09028 -1.15273 31069 ft 479 kts 236°
2026-03-26 11:58 39.04964 -1.22073 31063 ft 480 kts 236°
2026-03-26 11:59 39.01579 -1.27728 31070 ft 480 kts 236°
2026-03-26 11:59 38.97504 -1.34535 31065 ft 481 kts 236°
2026-03-26 12:00 38.93386 -1.41389 31065 ft 482 kts 235°
2026-03-26 12:00 38.89281 -1.48199 31072 ft 482 kts 235°
2026-03-26 12:01 38.85170 -1.55008 31085 ft 483 kts 235°
2026-03-26 12:01 38.81052 -1.61829 31085 ft 483 kts 235°
2026-03-26 12:02 38.76929 -1.68639 31081 ft 484 kts 235°
2026-03-26 12:02 38.72789 -1.75451 31083 ft 485 kts 234°
2026-03-26 12:03 38.68643 -1.82258 31079 ft 485 kts 234°
2026-03-26 12:03 38.64494 -1.89071 31076 ft 486 kts 234°
2026-03-26 12:04 38.60332 -1.95882 31072 ft 486 kts 234°
2026-03-26 12:04 38.56163 -2.02679 31072 ft 486 kts 234°
2026-03-26 12:05 38.51986 -2.09488 31079 ft 486 kts 234°
2026-03-26 12:05 38.47810 -2.16281 31072 ft 487 kts 234°
2026-03-26 12:06 38.43623 -2.23067 31066 ft 487 kts 234°
2026-03-26 12:06 38.39429 -2.29857 31060 ft 487 kts 234°
2026-03-26 12:07 38.36102 -2.37287 31052 ft 481 kts 251°
2026-03-26 12:07 38.34455 -2.45554 31040 ft 478 kts 261°
2026-03-26 12:08 38.33147 -2.53853 31035 ft 479 kts 261°
2026-03-26 12:08 38.31809 -2.62159 31032 ft 479 kts 261°
2026-03-26 12:09 38.30460 -2.70472 31035 ft 479 kts 261°
2026-03-26 12:09 38.29118 -2.78783 31027 ft 480 kts 261°
2026-03-26 12:10 38.27776 -2.87106 31028 ft 480 kts 261°
2026-03-26 12:10 38.26422 -2.95430 31031 ft 481 kts 261°
2026-03-26 12:11 38.25056 -3.03760 31035 ft 481 kts 261°
2026-03-26 12:11 38.23684 -3.12091 31038 ft 481 kts 260°
2026-03-26 12:12 38.22306 -3.20428 31038 ft 482 kts 260°
2026-03-26 12:12 38.20918 -3.28770 31041 ft 483 kts 260°
2026-03-26 12:13 38.19523 -3.37112 31040 ft 483 kts 260°
2026-03-26 12:13 38.18117 -3.45473 31042 ft 483 kts 260°
2026-03-26 12:14 38.16712 -3.53827 31042 ft 484 kts 260°
2026-03-26 12:14 38.15287 -3.62192 31040 ft 485 kts 258°
2026-03-26 12:15 38.13326 -3.70408 31039 ft 486 kts 255°
2026-03-26 12:15 38.11318 -3.78616 31035 ft 487 kts 255°
2026-03-26 12:16 38.09283 -3.86883 31032 ft 488 kts 255°
2026-03-26 12:16 38.07260 -3.95099 31031 ft 488 kts 255°
2026-03-26 12:17 38.05233 -4.03318 31032 ft 488 kts 254°
2026-03-26 12:17 38.03193 -4.11539 31034 ft 489 kts 254°
2026-03-26 12:18 38.01141 -4.19758 31031 ft 489 kts 254°
2026-03-26 12:18 37.99085 -4.27975 31029 ft 489 kts 254°
2026-03-26 12:19 37.97033 -4.36198 31002 ft 490 kts 254°
2026-03-26 12:19 37.96001 -4.40323 30516 ft 490 kts 254°
2026-03-26 12:19 37.94965 -4.44444 30405 ft 491 kts 254°
2026-03-26 12:20 37.93927 -4.48570 30296 ft 492 kts 254°
2026-03-26 12:20 37.92884 -4.52700 30191 ft 493 kts 254°
2026-03-26 12:20 37.91836 -4.56843 29870 ft 494 kts 254°
2026-03-26 12:20 37.90787 -4.60992 29096 ft 495 kts 254°
2026-03-26 12:21 37.89732 -4.65153 28405 ft 497 kts 254°
2026-03-26 12:21 37.88671 -4.69330 27745 ft 499 kts 253°
2026-03-26 12:21 37.87603 -4.73522 27098 ft 501 kts 253°
2026-03-26 12:21 37.86526 -4.77733 26460 ft 504 kts 253°
2026-03-26 12:22 37.85431 -4.82013 25829 ft 506 kts 253°
2026-03-26 12:22 37.84484 -4.86302 25208 ft 506 kts 260°
2026-03-26 12:22 37.83814 -4.90679 24624 ft 508 kts 261°
2026-03-26 12:22 37.83142 -4.95079 24040 ft 510 kts 261°
2026-03-26 12:23 37.82463 -4.99489 23440 ft 512 kts 261°
2026-03-26 12:23 37.81781 -5.03905 22764 ft 510 kts 260°
2026-03-26 12:23 37.81100 -5.08283 22126 ft 503 kts 260°
2026-03-26 12:23 37.80426 -5.12589 21481 ft 496 kts 260°
2026-03-26 12:24 37.79758 -5.16846 20844 ft 491 kts 260°
2026-03-26 12:24 37.79096 -5.21062 20218 ft 487 kts 260°
2026-03-26 12:24 37.78437 -5.25236 19610 ft 482 kts 260°
2026-03-26 12:24 37.77783 -5.29374 19022 ft 478 kts 259°
2026-03-26 12:25 37.77134 -5.33479 18440 ft 474 kts 259°
2026-03-26 12:25 37.76489 -5.37553 17791 ft 470 kts 259°
2026-03-26 12:25 37.75862 -5.41527 17130 ft 449 kts 259°
2026-03-26 12:25 37.75260 -5.45317 16625 ft 436 kts 259°
2026-03-26 12:26 37.74669 -5.49046 16114 ft 430 kts 259°
2026-03-26 12:26 37.74085 -5.52716 15620 ft 421 kts 259°
2026-03-26 12:26 37.73513 -5.56292 15130 ft 410 kts 259°
2026-03-26 12:26 37.72955 -5.59780 14654 ft 402 kts 259°
2026-03-26 12:27 37.72405 -5.63210 14181 ft 396 kts 259°
2026-03-26 12:27 37.71855 -5.66636 13735 ft 389 kts 259°
2026-03-26 12:27 37.71328 -5.69914 13271 ft 381 kts 259°
2026-03-26 12:27 37.70801 -5.73201 12797 ft 373 kts 259°
2026-03-26 12:28 37.70292 -5.76373 12341 ft 365 kts 259°
2026-03-26 12:28 37.69793 -5.79472 11881 ft 353 kts 259°
2026-03-26 12:28 37.69309 -5.82448 11411 ft 341 kts 259°
2026-03-26 12:28 37.68835 -5.85343 10851 ft 332 kts 259°
2026-03-26 12:29 37.68375 -5.88167 10339 ft 325 kts 259°
2026-03-26 12:29 37.67923 -5.90940 9808 ft 319 kts 259°
2026-03-26 12:29 37.67479 -5.93669 9233 ft 315 kts 259°
2026-03-26 12:29 37.67042 -5.96352 8734 ft 308 kts 259°
2026-03-26 12:30 37.66600 -5.98954 8372 ft 298 kts 255°
2026-03-26 12:30 37.65816 -6.01326 8024 ft 289 kts 238°
2026-03-26 12:30 37.64621 -6.03306 7675 ft 279 kts 223°
2026-03-26 12:30 37.63143 -6.04813 7328 ft 268 kts 212°
2026-03-26 12:31 37.61630 -6.06132 6989 ft 261 kts 212°
2026-03-26 12:31 37.60154 -6.07428 6656 ft 256 kts 212°
2026-03-26 12:31 37.58707 -6.08700 6316 ft 252 kts 212°
2026-03-26 12:31 37.57760 -6.09535 6082 ft 250 kts 212°
2026-03-26 12:32 37.56340 -6.10785 5724 ft 248 kts 211°
2026-03-26 12:32 37.54918 -6.12039 5371 ft 244 kts 212°
2026-03-26 12:32 37.53538 -6.13254 5027 ft 240 kts 211°
2026-03-26 12:32 37.52066 -6.14211 4672 ft 237 kts 193°
2026-03-26 12:33 37.50450 -6.14536 4323 ft 235 kts 173°
2026-03-26 12:33 37.48841 -6.14220 3968 ft 233 kts 159°
2026-03-26 12:33 37.47292 -6.13665 3623 ft 229 kts 159°
2026-03-26 12:33 37.45773 -6.13140 3272 ft 225 kts 159°
2026-03-26 12:34 37.44294 -6.12565 2912 ft 218 kts 150°
2026-03-26 12:34 37.43072 -6.11541 2569 ft 206 kts 130°
2026-03-26 12:34 37.42216 -6.10125 2233 ft 204 kts 112°
2026-03-26 12:34 37.41776 -6.08473 2008 ft 192 kts 95°
2026-03-26 12:35 37.41716 -6.06889 2020 ft 171 kts 86°
2026-03-26 12:35 37.41723 -6.05453 2010 ft 159 kts 87°
2026-03-26 12:35 37.41730 -6.04088 1975 ft 155 kts 87°
2026-03-26 12:35 37.41737 -6.02753 1852 ft 150 kts 87°
2026-03-26 12:36 37.41743 -6.01459 1685 ft 148 kts 86°
2026-03-26 12:36 37.41750 -6.00168 1504 ft 148 kts 87°
2026-03-26 12:36 37.41755 -5.98881 1305 ft 147 kts 88°
2026-03-26 12:36 37.41761 -5.97595 1117 ft 146 kts 86°
2026-03-26 12:37 37.41766 -5.96331 934 ft 142 kts 87°
2026-03-26 12:37 37.41771 -5.95136 743 ft 132 kts 86°
2026-03-26 12:37 37.41778 -5.93993 534 ft 131 kts 87°
2026-03-26 12:37 37.41776 -5.92849 379 ft 131 kts 87°
2026-03-26 12:38 37.41780 -5.91708 240 ft 132 kts 85°
2026-03-26 12:38 37.41790 -5.90573 101 ft 125 kts 86°
2026-03-26 12:38 37.41793 -5.89671 98 ft 79 kts 91°
2026-03-26 12:38 37.41797 -5.89175 100 ft 45 kts 88°
2026-03-26 12:39 37.41796 -5.88860 104 ft 14 kts 89°
2026-03-26 12:39 37.41829 -5.88781 104 ft 10 kts 20°
2026-03-26 12:39 37.41906 -5.88763 102 ft 13 kts 11°
2026-03-26 12:39 37.41979 -5.88789 102 ft 13 kts 292°
2026-03-26 12:40 37.41984 -5.88908 102 ft 15 kts 270°
2026-03-26 12:40 37.41984 -5.89054 101 ft 18 kts 270°
2026-03-26 12:40 37.41983 -5.89221 100 ft 20 kts 268°
2026-03-26 12:40 37.41998 -5.89372 99 ft 15 kts 309°
2026-03-26 12:41 37.42077 -5.89477 98 ft 18 kts 312°
2026-03-26 12:41 37.42148 -5.89570 87 ft 1 kts 314°
2026-03-26 12:41 37.42164 -5.89590 95 ft 7 kts 315°
2026-03-26 12:41 37.42159 -5.89649 95 ft 8 kts 232°
2026-03-26 12:42 37.42145 -5.89671 96 ft 0 kts 255°
2026-03-26 12:42 37.42156 -5.89688 97 ft 5 kts 309°
2026-03-26 12:42 37.42188 -5.89726 94 ft 3 kts 315°
2026-03-26 12:42 37.42193 -5.89733 94 ft 0 kts 313°